Location: Pedimozza
(42.0500°N, 9.3500°E)
Time: 04:40:41
(UTC+00:00)

Meteor 1-11 Rocket - Pass Details

Date: 19 August 2019
Orbit: 831 x 916 km, 81.2° (Epoch: 21 September)

Event Time Altitude Azimuth Distance (km) Brightness Sun altitude
Exits shadow 20:27:40 26° 184° (S) 1,687 4.9 -21.6°
Maximum altitude 20:31:08 84° 98° (E) 919 3.7 -22.1°
Drops below altitude 10° 20:37:07 10° 11° (N) 2,615 6.6 -22.9°
Sets 20:39:37 0° 11° (N) 3,563 7.4 -23.2°
